ASTRA 1KR

Last updated on Mon Sep 15 2025 00:02:46 GMT+0000 (Coordinated Universal Time)

1 29055U 06012A 25257.23169597 .00000108 00000+0 00000+0 0 9990 2 29055 0.0572 294.0660 0005213 270.9535 251.0341 1.00272199 42931
UTC large
Height (km)
Speed (km/s)
/
Latitude / Longitude
Inclination (degrees)
Orbital Period (minutes)
Azimuth
Elevation
Range (km)
Doppler Factor

Next 0 passes for location: London (51.5072 / 0.1276)

Sorry there are no passes over London.